Simultaneous Nadir Overpasses (SNOs) Predictions

Prediction of SNOs between GOES-16 and NOAA-19 Satellite Orbit:

Table of predicted SNOs for the next 14.0 days since TLE Epoch: 5/7/2022
Index Date Time (GOES-16) GOES-16 Lat,Lon NOAA-19 Lat,Lon Distance(km) Time Diff (sec)
1 05/09/2022 00:54:48 -0.05, -75.20 -0.65, -77.76 292.71 80
2 05/10/2022 00:40:19 -0.04, -75.20 0.03, -74.88 37.32 80
3 05/11/2022 00:28:30 -0.04, -75.21 0.70, -71.99 367.54 80
4 05/13/2022 12:51:48 0.04, -75.25 0.43, -76.88 186.39 80
5 05/14/2022 12:37:19 0.04, -75.26 -0.25, -74.00 144.17 80
6 05/15/2022 12:25:29 0.04, -75.28 -0.92, -71.12 474.71 80
7 05/17/2022 01:00:36 -0.04, -75.28 -0.89, -78.88 411.87 80
8 05/18/2022 00:48:46 -0.03, -75.29 -0.21, -76.00 81.35 80
9 05/19/2022 00:34:17 -0.03, -75.30 0.48, -73.12 249.23 80
